[[{"header":{"parameterUnit":"m.s-1","parameterCategory":1,"la1":30.2991,"la2":30.254,"lo1":-89.0895,"lo2":-89.0444,"dy":0.0017,"dx":0.0017,"nx":28,"ny":28,"refTime":"2024-04-18T03:00:00:Z","depth":0,"parameterNumber":2,"parameterNumberName":"U-component_of_WINDS"},"data":[0,0,0,0,0,0,0,0,0,0,0,0,0,0,0,0,0,0,0,0,0,0,0,0,0,0,0,0,0,0,0,0,0,0,0,0,0,0,0,0,0,0,0,0,0,0,0,0,0,0,0,0,0,0,0,0,0,0,-1.1754,-1.1753,0,-1.1681,-1.168,-1.1679,-1.1611,-1.161,-1.1609,-1.1608,-1.1534,-1.1532,-1.1531,0,0,0,0,0,0,0,0,0,0,0,0,0,-1.1833,-1.1832,-1.1754,-1.1753,-1.1752,-1.1681,-1.168,-1.1679,-1.1611,-1.161,-1.1609,-1.1608,-1.1534,-1.1533,-1.1531,0,0,0,0,0,0,0,0,0,0,0,0,0,-1.1783,-1.1832,-1.1754,-1.171,-1.1705,-1.1681,-1.168,-1.1679,-1.1611,-1.161,-1.1609,-1.1607,-1.1534,-1.1533,-1.1531,-1.1546,0,0,-1.1526,-1.1525,0,0,0,0,0,0,0,0,-1.1786,-1.1781,-1.1717,-1.1713,-1.1707,-1.1654,-1.1681,-1.1634,-1.1611,-1.1647,-1.1608,-1.1607,-1.1575,-1.1569,-1.1559,-1.1542,-1.1539,-1.1525,-1.1524,-1.1524,-1.1523,0,0,0,0,0,0,0,-1.179,-1.1783,-1.1725,-1.1716,-1.171,-1.1693,-1.1684,-1.1672,-1.1619,-1.1644,-1.1638,-1.1631,-1.1572,-1.1561,-1.1556,-1.1538,-1.1525,-1.1524,-1.1523,-1.1522,-1.1528,-1.1529,0,0,0,0,0,0,-1.18,-1.1787,-1.1728,-1.1723,-1.1744,-1.1692,-1.1683,-1.1672,-1.1619,-1.1609,-1.1632,-1.1628,-1.1564,-1.1558,-1.1553,-1.1566,-1.1524,-1.1522,-1.1521,-1.1527,-1.1529,-1.153,0,0,0,0,0,0,-1.1802,-1.1796,-1.173,-1.1753,-1.1744,-1.1692,-1.1681,-1.1671,-1.166,-1.161,-1.16,-1.163,-1.1563,-1.1556,-1.1548,-1.1562,-1.1521,-1.1519,-1.1526,-1.1528,-1.1529,-1.1592,0,0,0,0,0,0,-1.1805,-1.1797,-1.1802,-1.1754,-1.1743,-1.1727,-1.1682,-1.1671,-1.1657,-1.1651,-1.1606,-1.1597,-1.1561,-1.1551,-1.1546,-1.1559,-1.1518,-1.1524,-1.1526,-1.1529,-1.1588,-1.1596,-1.1602,0,0,0,0,0,-1.1808,-1.1823,-1.1803,-1.1796,-1.1749,-1.1728,-1.1721,-1.168,-1.1659,-1.1663,-1.1631,-1.1598,-1.1562,-1.1551,-1.1545,-1.1558,-1.1523,-1.1526,-1.1528,-1.1585,-1.1594,-1.1602,0,0,0,0,0,0,-1.1875,-1.1816,-1.1793,-1.1793,-1.1766,-1.1716,-1.1721,-1.1691,-1.1669,-1.1664,-1.1614,-1.1604,-1.1602,-1.1579,-1.1567,-1.1568,-1.1538,-1.154,-1.1583,-1.1591,-1.1598,-1.1603,-1.1517,0,0,0,0,0,-1.1889,-1.1878,-1.1827,-1.1832,-1.1819,-1.1773,-1.1762,-1.1732,-1.1702,-1.169,-1.1657,-1.1629,-1.161,-1.16,-1.158,-1.1585,-1.1573,-1.1591,-1.1598,-1.1603,-1.1605,-1.1604,-1.1611,-1.1539,-1.1539,-1.1539,0,0,-1.192,-1.1886,-1.1882,-1.1845,-1.182,-1.1808,-1.1763,-1.1753,-1.1744,-1.1689,-1.1678,-1.1653,-1.1618,-1.1616,-1.1613,-1.1597,-1.1623,-1.1607,-1.1612,-1.1611,-1.1608,-1.1615,-1.1621,-1.1541,-1.1541,-1.154,0,0,-1.1969,-1.1943,-1.1944,-1.192,-1.1883,-1.1851,-1.1852,-1.1806,-1.1787,-1.1776,-1.1734,-1.1722,-1.1692,-1.1668,-1.1652,-1.1691,-1.166,-1.1686,-1.1722,-1.1722,-1.1727,-1.1732,-1.1745,-1.175,-1.1688,-1.1689,-1.1689,0,-1.2011,-1.1992,-1.1948,-1.194,-1.1924,-1.1873,-1.1873,-1.1852,-1.1811,-1.1801,-1.1783,-1.1743,-1.1716,-1.1707,-1.1716,-1.1706,-1.1703,-1.1691,-1.173,-1.1734,-1.1738,-1.175,-1.1755,-1.1692,-1.1692,-1.1691,-1.1691,0,-1.2045,-1.2033,-1.2037,-1.1998,-1.1983,-1.1979,-1.1934,-1.1924,-1.1895,-1.1866,-1.1854,-1.182,-1.1792,-1.1788,-1.176,-1.1774,-1.1765,-1.174,-1.1708,-1.1749,-1.1759,-1.1763,-1.1697,-1.1696,-1.1695,-1.1694,0,0,-1.2135,-1.207,-1.2073,-1.2054,-1.2009,-1.1998,-1.1991,-1.1964,-1.1955,-1.1928,-1.1921,-1.1896,-1.1872,-1.1854,-1.1823,-1.1823,-1.1854,-1.1797,-1.1795,-1.1808,-1.1866,-1.1885,-1.1891,-1.1833,-1.1834,-1.1835,-1.1868,0,-1.2175,-1.216,-1.212,-1.2117,-1.2104,-1.2055,-1.2049,-1.202,-1.1992,-1.1976,-1.1945,-1.1928,-1.1898,-1.1886,-1.1884,-1.1851,-1.1865,-1.1848,-1.1825,-1.1825,-1.1834,-1.1896,-1.1916,-1.195,-1.1872,-1.1873,-1.1873,0,-1.2221,-1.2197,-1.2192,-1.2147,-1.214,-1.2135,-1.2105,-1.2092,-1.2058,-1.2037,-1.2017,-1.1982,-1.1971,-1.1943,-1.1927,-1.1916,-1.1904,-1.1886,-1.1886,-1.1882,-1.1851,-1.1892,-1.196,-1.1965,-1.1879,-1.1879,-1.1878,0,-1.2285,-1.2251,-1.2244,-1.2229,-1.2176,-1.2174,-1.2152,-1.2116,-1.2102,-1.2076,-1.2066,-1.204,-1.2025,-1.2006,-1.1965,-1.1948,-1.1953,-1.1921,-1.1935,-1.1936,-1.1937,-1.1938,-1.2003,-1.1932,-1.1931,-1.1931,-1.1931,0,-1.2334,-1.2333,-1.2272,-1.2267,-1.2264,-1.2217,-1.2216,-1.2189,-1.2158,-1.2146,-1.2103,-1.2093,-1.204,-1.2024,-1.1992,-1.1983,-1.1977,-1.1959,-1.1951,-1.1963,-1.1965,-1.1954,-1.195,-1.1933,-1.1932,-1.1932,-1.1932,0,-1.2406,-1.2364,-1.2353,-1.2303,-1.2291,-1.2291,-1.2248,-1.2241,-1.221,-1.2196,-1.219,-1.2142,-1.212,-1.2078,-1.2045,-1.2023,-1.2021,-1.2006,-1.2032,-1.2027,-1.2043,-1.2041,-1.2102,-1.2107,-1.2034,-1.2035,-1.2035,0,-1.2439,-1.2437,-1.2387,-1.2376,-1.2356,-1.2339,-1.2324,-1.2277,-1.2263,-1.2224,-1.2222,-1.2197,-1.2175,-1.2143,-1.2104,-1.2078,-1.2062,-1.2085,-1.2058,-1.207,-1.2061,-1.2062,-1.206,-1.2091,-1.2092,-1.2093,-1.2094,0,-1.2503,-1.2483,-1.2462,-1.2435,-1.2418,-1.2394,-1.2368,-1.2362,-1.2309,-1.2295,-1.2272,-1.2255,-1.2221,-1.2196,-1.2165,-1.2141,-1.2108,-1.2103,-1.2104,-1.2116,-1.2131,-1.2122,-1.2048,-1.2102,-1.2101,-1.21,-1.21,-1.2099,-1.2556,-1.2551,-1.2515,-1.2493,-1.2469,-1.2445,-1.2436,-1.2403,-1.2384,-1.2352,-1.2326,-1.2305,-1.227,-1.2224,-1.2202,-1.2185,-1.217,-1.2172,-1.2173,-1.2174,-1.2178,-1.2135,-1.2179,-1.2179,-1.2179,-1.2179,-1.2178,0,-1.2616,-1.259,-1.2571,-1.2536,-1.2518,-1.2489,-1.2458,-1.2446,-1.2428,-1.2398,-1.2377,-1.2351,-1.2326,-1.2286,-1.2258,-1.2252,-1.2236,-1.2246,-1.2246,-1.224,-1.2195,-1.2196,-1.2259,-1.2259,-1.2259,-1.2259,-1.2259,-1.2259,-1.2646,-1.2636,-1.2611,-1.2588,-1.2562,-1.2541,-1.2526,-1.2504,-1.2479,-1.2451,-1.2431,-1.2405,-1.237,-1.2339,-1.2315,-1.2303,-1.2295,-1.2309,-1.2293,-1.2251,-1.2244,-1.2237,-1.2237,-1.2308,-1.2308,-1.234,-1.234,-1.2341]},{"header":{"parameterUnit":"m.s-1","parameterCategory":1,"la1":30.2991,"la2":30.254,"lo1":-89.0895,"lo2":-89.0444,"dy":0.0017,"dx":0.0017,"nx":28,"ny":28,"refTime":"2024-04-18T03:00:00:Z","depth":0,"parameterNumber":3,"parameterNumberName":"V-component_of_WINDS"},"data":[0,0,0,0,0,0,0,0,0,0,0,0,0,0,0,0,0,0,0,0,0,0,0,0,0,0,0,0,0,0,0,0,0,0,0,0,0,0,0,0,0,0,0,0,0,0,0,0,0,0,0,0,0,0,0,0,0,0,1.1021,1.1022,0,1.1089,1.109,1.1091,1.1123,1.1123,1.1123,1.1123,1.1193,1.1195,1.1197,0,0,0,0,0,0,0,0,0,0,0,0,0,1.092,1.0922,1.1021,1.1022,1.1023,1.1089,1.109,1.1091,1.1123,1.1123,1.1123,1.1123,1.1192,1.1194,1.1197,0,0,0,0,0,0,0,0,0,0,0,0,0,1.0973,1.0922,1.1021,1.1047,1.105,1.1089,1.109,1.1091,1.1123,1.1123,1.1123,1.1123,1.1191,1.1194,1.1197,1.1216,0,0,1.1206,1.1207,0,0,0,0,0,0,0,0,1.097,1.0977,1.1042,1.1045,1.1049,1.1098,1.108,1.1133,1.1123,1.1095,1.1123,1.1123,1.1161,1.1167,1.1179,1.1219,1.1222,1.1206,1.1208,1.1209,1.121,0,0,0,0,0,0,0,1.0967,1.0974,1.1048,1.1043,1.1047,1.1055,1.1063,1.109,1.1128,1.1098,1.11,1.1108,1.1163,1.1177,1.1181,1.1223,1.1206,1.1208,1.121,1.1211,1.1283,1.1283,0,0,0,0,0,0,1.0959,1.0971,1.1046,1.105,1.1008,1.1057,1.1066,1.1082,1.1128,1.1134,1.1108,1.1109,1.1172,1.1178,1.1184,1.121,1.1209,1.1212,1.1213,1.1283,1.1283,1.1283,0,0,0,0,0,0,1.0956,1.0965,1.1043,1.1011,1.1022,1.1059,1.1077,1.1083,1.1097,1.1135,1.1142,1.1115,1.1172,1.118,1.1208,1.1213,1.1213,1.1216,1.1283,1.1283,1.1283,1.1261,0,0,0,0,0,0,1.0953,1.0964,1.0971,1.1011,1.1024,1.1066,1.1077,1.1085,1.1102,1.1104,1.1144,1.115,1.1173,1.1204,1.1211,1.1216,1.1218,1.1282,1.1283,1.1283,1.1261,1.126,1.1259,0,0,0,0,0,1.095,1.0962,1.0972,1.0981,1.1034,1.1066,1.1073,1.1099,1.1102,1.111,1.1135,1.1149,1.1211,1.1206,1.1215,1.1221,1.1282,1.1283,1.1283,1.1262,1.1261,1.126,0,0,0,0,0,0,1.0922,1.0968,1.0979,1.1005,1.1031,1.1072,1.1082,1.1096,1.1123,1.1124,1.1154,1.1163,1.1188,1.1208,1.1202,1.1242,1.1248,1.125,1.1229,1.1228,1.1227,1.1222,1.122,0,0,0,0,0,1.0919,1.0942,1.0981,1.1,1.1013,1.1045,1.106,1.1078,1.1106,1.1118,1.1144,1.1172,1.1197,1.1214,1.1239,1.1264,1.1274,1.1273,1.1272,1.1271,1.1273,1.1288,1.1288,1.1285,1.1285,1.1285,0,0,1.0913,1.0941,1.0953,1.0995,1.1018,1.1041,1.1054,1.1078,1.1095,1.1121,1.1149,1.117,1.1203,1.1229,1.1242,1.1246,1.1276,1.1272,1.1271,1.1273,1.1288,1.1288,1.1289,1.1285,1.1285,1.1285,0,0,1.0914,1.0937,1.0956,1.0979,1.1012,1.1034,1.1038,1.1077,1.1091,1.112,1.114,1.1161,1.1205,1.1227,1.1244,1.1254,1.1268,1.1262,1.1257,1.1271,1.1271,1.1272,1.1275,1.1276,1.1263,1.1263,1.1263,0,1.0903,1.0938,1.0964,1.0987,1.1005,1.1029,1.1049,1.1069,1.111,1.1122,1.1125,1.1181,1.1204,1.1237,1.1239,1.1252,1.1259,1.1257,1.1269,1.127,1.1271,1.1274,1.1276,1.1262,1.1262,1.1262,1.1262,0,1.0922,1.0946,1.0957,1.0996,1.1015,1.1036,1.1066,1.1082,1.1097,1.1119,1.1148,1.1177,1.1209,1.1218,1.1234,1.1253,1.1254,1.1263,1.1269,1.1269,1.1274,1.1275,1.126,1.1261,1.1261,1.1261,0,0,1.0908,1.0961,1.0964,1.0982,1.1021,1.1041,1.1063,1.1094,1.1108,1.1135,1.1154,1.1191,1.1199,1.1219,1.1237,1.1249,1.1256,1.1257,1.1258,1.1256,1.1279,1.1272,1.1274,1.1265,1.1266,1.1266,1.1277,0,1.0915,1.0955,1.098,1.101,1.1033,1.1057,1.1076,1.1102,1.1123,1.1145,1.1168,1.1193,1.1202,1.1214,1.1227,1.1252,1.1261,1.1252,1.1284,1.1285,1.1275,1.1276,1.1269,1.1278,1.1278,1.1279,1.1279,0,1.0928,1.0954,1.0987,1.1024,1.1034,1.1051,1.1082,1.1103,1.1134,1.1148,1.1169,1.1188,1.1212,1.1216,1.1251,1.1244,1.1259,1.1273,1.1274,1.1278,1.1282,1.1281,1.1281,1.1282,1.1282,1.1281,1.1281,0,1.0914,1.0958,1.0984,1.0998,1.1042,1.1053,1.1072,1.1102,1.112,1.1147,1.1159,1.1188,1.1204,1.1227,1.1253,1.1254,1.1285,1.1291,1.1298,1.1297,1.1304,1.1303,1.1307,1.1313,1.1313,1.1313,1.1313,0,1.0919,1.0938,1.0978,1.0994,1.1016,1.1044,1.1066,1.1087,1.1113,1.1134,1.1156,1.1175,1.1208,1.1231,1.1252,1.1277,1.1284,1.1297,1.1302,1.1295,1.1293,1.1305,1.1305,1.1313,1.1313,1.1313,1.1313,0,1.0908,1.0936,1.0965,1.1004,1.1014,1.1029,1.1062,1.1079,1.11,1.1126,1.1133,1.1167,1.1195,1.1224,1.1261,1.1275,1.1301,1.1308,1.129,1.1293,1.1298,1.1298,1.131,1.1313,1.1317,1.1316,1.1316,0,1.091,1.0925,1.0966,1.0981,1.0999,1.1023,1.1041,1.1069,1.1087,1.1123,1.1135,1.1165,1.119,1.1234,1.1262,1.1291,1.13,1.1302,1.1304,1.1297,1.13,1.1299,1.1301,1.1301,1.1301,1.1301,1.1301,0,1.091,1.0922,1.0947,1.0977,1.0997,1.1022,1.1048,1.1059,1.1092,1.1111,1.114,1.116,1.1198,1.1228,1.126,1.128,1.1296,1.13,1.1303,1.1296,1.1285,1.1291,1.1288,1.1299,1.1299,1.1299,1.13,1.13,1.0905,1.092,1.0951,1.0978,1.1,1.1023,1.1041,1.1064,1.1089,1.1122,1.1138,1.1167,1.1198,1.1243,1.1262,1.1286,1.129,1.1295,1.1296,1.1296,1.1295,1.1281,1.1292,1.1292,1.1292,1.1292,1.1292,0,1.0907,1.0928,1.0952,1.0987,1.1008,1.1021,1.105,1.1067,1.1092,1.1119,1.1144,1.1177,1.1206,1.1236,1.1267,1.128,1.1288,1.1287,1.1286,1.1291,1.1289,1.1284,1.128,1.128,1.128,1.128,1.128,1.128,1.091,1.0936,1.0952,1.0989,1.101,1.1039,1.1054,1.1076,1.1098,1.1134,1.1158,1.1178,1.1206,1.1239,1.1266,1.1274,1.1285,1.1282,1.1292,1.129,1.1291,1.1292,1.1287,1.1284,1.1284,1.1292,1.1292,1.1292]}]]